Weather observations for the past three days for
Rutherfordton, Rutherford County-Marchman Field Airport
Imperial (Metric)
Date Time (edt) Wind (mph) Vis. (mi.) Weather Sky Cond. Temperature (ºF) Relative Humidity Wind Chill (°F) Heat Index (°F) Pressure Precipitation (in)
Air Dwpt 6 hour altimeter (in) sea level (mb) 1 hr 3 hr 6 hr
Max. Min.
12 23:45 Calm 10.00 Fair CLR 68 64.4 88% 30.04 0.0
12 23:25 Calm 10.00 Fair CLR 69.8 64.4 83% 30.04 0.0
12 23:05 Calm 10.00 Fair CLR 69.8 64.4 83% 30.04 0.0
12 22:45 Calm 10.00 Fair CLR 71.6 64.4 78% 30.05 0.0
12 22:25 Calm 10.00 Fair CLR 69.8 64.4 83% 30.04 0.0
12 22:05 Calm 10.00 Fair CLR 73.4 64.4 74% 30.03 0.0
12 21:45 Calm 10.00 Fair CLR 73.4 62.6 69% 30.03 0.0
12 21:25 Calm 10.00 Fair CLR 73.4 64.4 74% 30.03 0.0
12 21:05 Calm 10.00 Fair CLR 75.2 64.4 69% 77 30.03 0.0
12 20:45 Calm 10.00 Fair CLR 77 62.6 61% 79 30.03 0.0
12 20:25 S 3 10.00 Fair CLR 77 62.6 61% 79 30.03 0.0
12 20:05 Calm 10.00 Fair CLR 77 62.6 61% 79 30.02 0.0
12 19:45 S 3 10.00 Fair CLR 78.8 62.6 58% 80 30.02 0.0
12 19:25 S 5 10.00 Fair CLR 78.8 62.6 58% 80 30.02 0.0
12 19:05 S 5 10.00 Partly Cloudy SCT090 78.8 60.8 54% 80 30.02 0.0
12 18:45 S 7 10.00 Partly Cloudy SCT055 80.6 60.8 51% 81 30.02 0.0
12 18:25 SW 5 10.00 Partly Cloudy SCT055 SCT065 82.4 60.8 48% 83 30.01 0.0
12 18:05 Calm 10.00 Fair CLR 82.4 59 45% 82 30.01 0.0
12 17:45 Calm 10.00 Fair CLR 82.4 59 45% 82 30.01 0.0
12 17:25 Calm 10.00 Fair CLR 82.4 60.8 48% 83 30.01 0.0
12 17:05 SE 3 10.00 Partly Cloudy SCT085 82.4 59 45% 82 30.01 0.0
12 16:45 SE 5 10.00 Mostly Cloudy SCT065 BKN085 82.4 60.8 48% 83 30.02 0.0
12 16:25 Calm 10.00 Overcast SCT050 BKN065 OVC085 80.6 59 48% 81 30.02 0.0
12 16:05 S 6 10.00 Overcast BKN050 OVC065 82.4 60.8 48% 83 30.02 0.0
12 15:45 S 5 10.00 Mostly Cloudy BKN050 BKN060 BKN080 80.6 60.8 51% 81 30.03 0.0
12 15:25 S 5 10.00 Mostly Cloudy BKN050 82.4 59 45% 82 30.03 0.0
12 15:05 S 6 10.00 Fair CLR 80.6 59 48% 81 30.03 0.0
12 14:45 Calm 10.00 Fair CLR 82.4 60.8 48% 83 30.04 0.0
12 14:25 S 6 10.00 Fair CLR 80.6 60.8 51% 81 30.04 0.0
12 14:05 Calm 10.00 Partly Cloudy SCT044 82.4 60.8 48% 83 30.05 0.0
12 13:45 SE 7 10.00 Fair CLR 80.6 60.8 51% 81 30.05 0.0
12 13:25 SE 5 10.00 Fair CLR 80.6 60.8 51% 81 30.06 0.0
12 13:05 S 5 10.00 Fair CLR 80.6 60.8 51% 81 30.06 0.0
12 12:45 SE 5 10.00 Fair CLR 78.8 62.6 58% 80 30.07 0.0
12 12:25 S 5 10.00 Fair CLR 78.8 62.6 58% 80 30.07 0.0
12 12:05 Calm 10.00 Fair CLR 78.8 60.8 54% 80 30.07 0.0
12 11:45 N 3 10.00 Fair CLR 78.8 60.8 54% 80 30.08 0.0
12 11:25 Calm 10.00 Fair CLR 78.8 60.8 54% 80 30.08 0.0
12 11:05 Calm 10.00 Fair CLR 77 59 54% 79 30.08 0.0
12 10:45 NE 5 10.00 Fair CLR 77 60.8 57% 79 30.08 0.0
12 10:25 Calm 10.00 Fair CLR 75.2 59 57% 78 30.08 0.0
12 10:05 N 3 10.00 Fair CLR 75.2 60.8 61% 77 30.09 0.0
12 09:45 NE 3 10.00 Fair CLR 73.4 59 61% 30.09 0.0
12 09:25 Calm 10.00 Fair CLR 71.6 59 65% 30.09 0.0
12 09:05 NE 7 10.00 Fair CLR 71.6 59 65% 30.08 0.0
12 08:45 N 5 10.00 Fair CLR 69.8 59 69% 30.07 0.0
12 08:25 N 5 10.00 Fair CLR 69.8 59 69% 30.06 0.0
12 08:05 Calm 10.00 Fair CLR 68 59 73% 30.06 0.0
12 07:45 N 5 10.00 Fair CLR 66.2 59 78% 30.06 0.0
12 07:25 Calm 10.00 Fair CLR 64.4 59 83% 30.06 0.0
12 07:05 N 3 10.00 Fair CLR 62.6 59 88% 30.05 0.0
12 06:45 N 6 10.00 Partly Cloudy SCT050 62.6 59 88% 30.05 0.0
12 06:25 N 3 10.00 Partly Cloudy SCT050 62.6 59 88% 30.05 0.0
12 06:05 Calm 10.00 Fair CLR 62.6 59 88% 30.04 0.0
12 05:45 N 5 10.00 Fair CLR 62.6 59 88% 30.03 0.0
12 05:25 N 6 10.00 Partly Cloudy SCT055 62.6 59 88% 30.02 0.0
12 05:05 N 3 10.00 Partly Cloudy SCT055 62.6 59 88% 30.02 0.0
12 04:45 N 3 10.00 Fair CLR 60.8 60.8 100% 30.02 0.0
12 04:25 N 3 10.00 Fair CLR 62.6 59 88% 30.02 0.0
12 04:05 Calm 10.00 Partly Cloudy SCT085 62.6 59 88% 30.01 0.0
12 03:45 Calm 10.00 Mostly Cloudy BKN085 62.6 60.8 94% 30.01 0.0
12 03:25 Calm 10.00 Mostly Cloudy BKN085 62.6 60.8 94% 30.01 0.0
12 03:05 Calm 10.00 Overcast OVC085 64.4 60.8 88% 30.01 0.0
12 02:45 N 3 10.00 Overcast OVC085 62.6 60.8 94% 30 0.0
12 02:25 Calm 10.00 Mostly Cloudy BKN085 66.2 57.2 73% 30.01 0.0
12 02:05 N 5 10.00 Mostly Cloudy BKN085 64.4 59 83% 30 0.0
12 01:45 N 5 10.00 Overcast OVC085 64.4 60.8 88% 30 0.0
12 01:25 Calm 10.00 Overcast OVC085 64.4 60.8 88% 30.01 0.0
12 01:05 Calm 10.00 Overcast OVC085 64.4 60.8 88% 30.01 0.0
12 00:45 Calm 10.00 Overcast OVC085 64.4 60.8 88% 30.01 0.0
12 00:25 NE 3 10.00 Overcast OVC085 68 59 73% 30 0.0
12 00:05 Calm 10.00 Mostly Cloudy BKN085 64.4 60.8 88% 30 0.0
11 23:45 Calm 10.00 Mostly Cloudy BKN085 64.4 60.8 88% 29.99 0.0
11 23:25 NW 3 10.00 Mostly Cloudy BKN085 64.4 60.8 88% 29.99 0.0
11 22:45 Calm 10.00 Overcast OVC085 66.2 60.8 83% 29.99 0.0
11 22:25 Calm 10.00 Mostly Cloudy BKN085 66.2 60.8 83% 29.98 0.0
11 22:05 Calm 10.00 Fair CLR 68 60.8 78% 29.97 0.0
11 21:45 Calm 10.00 Fair CLR 69.8 60.8 73% 29.97 0.0
11 21:25 Calm 10.00 Partly Cloudy SCT085 69.8 59 69% 29.96 0.0
11 21:05 Calm 10.00 Partly Cloudy SCT085 71.6 60.8 69% 29.96 0.0
11 20:45 Calm 10.00 Fair CLR 73.4 57.2 57% 29.95 0.0
11 20:25 Calm 10.00 Fair CLR 75.2 57.2 54% 78 29.94 0.0
11 20:05 SE 3 10.00 Fair CLR 77 57.2 51% 79 29.94 0.0
11 19:45 SE 3 10.00 Fair CLR 77 57.2 51% 79 29.94 0.0
11 19:25 SE 5 10.00 Fair CLR 78.8 57.2 48% 80 29.94 0.0
11 19:05 S 3 10.00 Fair CLR 78.8 57.2 48% 80 29.93 0.0
11 18:45 S 6 10.00 Partly Cloudy SCT060 78.8 55.4 45% 79 29.93 0.0
11 18:25 Calm 10.00 Fair CLR 78.8 53.6 42% 79 29.93 0.0
11 18:05 SE 3 10.00 Fair CLR 78.8 55.4 45% 79 29.93 0.0
11 17:45 S 7 10.00 Fair CLR 80.6 55.4 42% 81 29.93 0.0
11 17:25 SE 6 10.00 Fair CLR 80.6 55.4 42% 81 29.93 0.0
11 17:05 S 5 10.00 Fair CLR 80.6 55.4 42% 81 29.93 0.0
11 16:45 S 6 10.00 Partly Cloudy SCT070 80.6 55.4 42% 81 29.93 0.0
11 16:25 S 6 10.00 Partly Cloudy SCT070 78.8 53.6 42% 79 29.93 0.0
11 16:05 S 7 10.00 Fair CLR 78.8 55.4 45% 79 29.93 0.0
11 15:45 S 7 10.00 Partly Cloudy SCT060 78.8 55.4 45% 79 29.93 0.0
11 15:25 W 3 10.00 Partly Cloudy SCT060 78.8 53.6 42% 79 29.94 0.0
11 15:05 S 6 10.00 Partly Cloudy SCT050 80.6 57.2 45% 81 29.93 0.0
11 14:45 W 3 10.00 Partly Cloudy SCT050 80.6 53.6 39% 80 29.94 0.0
11 14:25 Calm 10.00 Partly Cloudy SCT050 SCT075 78.8 55.4 45% 79 29.94 0.0
11 14:05 SW 7 10.00 Partly Cloudy SCT050 SCT075 78.8 55.4 45% 79 29.94 0.0
11 13:45 SE 3 10.00 Fair CLR 77 53.6 44% 78 29.94 0.0
11 13:25 S 3 10.00 Fair CLR 77 55.4 47% 79 29.95 0.0
11 13:00 N 3 10.00 Fair CLR 78.8 55.4 45% 79 29.95 0.0
11 12:45 E 3 10.00 Fair CLR 75.2 55.4 50% 78 29.95 0.0
11 12:25 Calm 10.00 Fair CLR 73.4 55.4 53% 29.95 0.0
11 12:05 NE 6 10.00 Fair CLR 77 55.4 47% 79 29.96 0.0
11 11:45 NE 5 10.00 Fair CLR 75.2 55.4 50% 78 29.96 0.0
11 11:25 N 5 10.00 Fair CLR 73.4 55.4 53% 29.97 0.0
11 11:05 Calm 10.00 Fair CLR 73.4 55.4 53% 29.97 0.0
11 10:45 Calm 10.00 Fair CLR 73.4 55.4 53% 29.97 0.0
11 10:25 Calm 10.00 Partly Cloudy SCT070 71.6 55.4 57% 29.97 0.0
11 10:05 NE 5 10.00 Partly Cloudy SCT080 71.6 55.4 57% 29.97 0.0
11 09:45 E 5 10.00 Partly Cloudy SCT085 SCT090 71.6 55.4 57% 29.97 0.0
11 09:25 NE 5 10.00 Partly Cloudy SCT075 71.6 55.4 57% 29.97 0.0
11 09:05 Calm 10.00 Mostly Cloudy SCT075 BKN085 69.8 55.4 60% 29.97 0.0
11 08:45 Calm 10.00 Mostly Cloudy SCT075 BKN085 68 55.4 64% 29.97 0.0
11 08:25 N 3 10.00 Mostly Cloudy SCT075 BKN085 66.2 55.4 68% 29.96 0.0
11 08:05 Calm 10.00 Mostly Cloudy BKN070 BKN085 64.4 55.4 73% 29.96 0.0
11 07:45 Calm 10.00 Mostly Cloudy BKN075 62.6 53.6 73% 29.95 0.0
11 07:25 Calm 10.00 Mostly Cloudy BKN075 60.8 55.4 83% 29.95 0.0
11 07:05 Calm 10.00 Overcast OVC075 60.8 53.6 77% 29.94 0.0
11 06:45 Calm 10.00 Overcast OVC075 60.8 53.6 77% 29.94 0.0
11 06:25 NW 3 10.00 Overcast OVC075 60.8 53.6 77% 29.93 0.0
11 06:05 N 3 10.00 Overcast OVC075 60.8 53.6 77% 29.93 0.0
11 05:45 Calm 10.00 Mostly Cloudy BKN075 60.8 51.8 72% 29.93 0.0
11 05:25 N 5 10.00 Mostly Cloudy BKN075 60.8 53.6 77% 29.92 0.0
11 05:05 NW 5 10.00 Partly Cloudy SCT075 57.2 55.4 94% 29.91 0.0
11 04:45 Calm 10.00 Partly Cloudy SCT075 59 53.6 82% 29.91 0.0
11 04:25 Calm 10.00 Fair CLR 59 53.6 82% 29.9 0.0
11 04:05 N 5 10.00 Partly Cloudy SCT085 62.6 51.8 68% 29.89 0.0
11 03:45 N 5 10.00 Mostly Cloudy BKN085 60.8 53.6 77% 29.89 0.0
11 03:25 NW 5 10.00 Partly Cloudy SCT085 59 55.4 88% 29.89 0.0
11 03:05 N 5 10.00 Partly Cloudy SCT085 59 57.2 94% 29.89 0.0
11 02:45 NW 3 10.00 Fair CLR 59 57.2 94% 29.89 0.0
11 02:25 Calm 10.00 Fair CLR 59 59 100% 29.89 0.0
11 02:05 Calm 10.00 Fair CLR 60.8 57.2 88% 29.89 0.0
11 01:45 NW 3 10.00 Fair CLR 60.8 59 94% 29.9 0.0
11 01:25 Calm 10.00 Partly Cloudy SCT090 60.8 59 94% 29.9 0.0
11 01:05 Calm 10.00 Mostly Cloudy BKN090 62.6 59 88% 29.9 0.0
11 00:45 Calm 10.00 Overcast OVC090 62.6 57.2 83% 29.9 0.0
11 00:25 Calm 10.00 Overcast OVC090 64.4 59 83% 29.9 0.0
11 00:05 Calm 10.00 Overcast OVC090 62.6 59 88% 29.89 0.0
10 23:45 Calm 10.00 Overcast OVC090 62.6 59 88% 29.89 0.0
10 23:20 Calm 10.00 Overcast OVC090 64.4 59 83% 29.89 0.0
10 23:05 Calm 10.00 Overcast OVC090 66.2 59 78% 29.89 0.0
10 22:45 Calm 10.00 Overcast OVC090 68 55.4 64% 29.88 0.0
10 22:25 Calm 10.00 Overcast OVC090 66.2 59 78% 29.87 0.0
10 22:05 Calm 10.00 Overcast OVC090 68 57.2 69% 29.87 0.0
10 21:45 Calm 10.00 Overcast OVC090 69.8 57.2 64% 29.87 0.0
10 21:25 N 3 10.00 Overcast OVC090 71.6 55.4 57% 29.86 0.0
10 21:05 Calm 10.00 Mostly Cloudy BKN090 71.6 53.6 53% 29.85 0.0
10 20:45 Calm 10.00 Mostly Cloudy BKN100 73.4 53.6 50% 29.84 0.0
10 20:25 N 5 10.00 Overcast OVC090 75.2 51.8 44% 78 29.84 0.0
10 20:05 Calm 10.00 Overcast SCT070 OVC090 77 51.8 42% 78 29.83 0.0
10 19:45 Calm 10.00 Mostly Cloudy BKN090 75.2 55.4 50% 78 29.82 0.0
10 19:25 Calm 10.00 Partly Cloudy SCT090 78.8 51.8 39% 79 29.82 0.0
10 19:05 Calm 10.00 Partly Cloudy SCT090 80.6 48.2 32% 80 29.81 0.0
10 18:45 NW 3 10.00 Fair CLR 80.6 50 34% 80 29.81 0.0
10 18:25 Calm 10.00 Fair CLR 80.6 50 34% 80 29.8 0.0
10 18:05 N 3 10.00 Partly Cloudy SCT095 80.6 50 34% 80 29.8 0.0
10 17:45 NE 5 10.00 Partly Cloudy SCT095 78.8 48.2 34% 79 29.81 0.0
10 17:25 NE 3 10.00 Fair CLR 78.8 51.8 39% 79 29.81 0.0
10 17:05 E 5 10.00 Partly Cloudy SCT070 80.6 51.8 37% 80 29.81 0.0
10 16:45 Calm 10.00 Mostly Cloudy SCT070 BKN080 80.6 51.8 37% 80 29.81 0.0
10 16:25 E 3 10.00 Mostly Cloudy SCT075 BKN080 78.8 50 37% 79 29.82 0.0
10 16:05 Calm 10.00 Mostly Cloudy SCT075 BKN085 78.8 50 37% 79 29.82 0.0
10 15:45 N 5 10.00 Mostly Cloudy BKN075 80.6 50 34% 80 29.83 0.0
10 15:25 N 3 10.00 Mostly Cloudy BKN080 BKN085 78.8 50 37% 79 29.82 0.0
10 15:05 N 6 10.00 Mostly Cloudy BKN070 BKN080 78.8 50 37% 79 29.82 0.0
10 14:45 Calm 10.00 Partly Cloudy SCT080 78.8 48.2 34% 79 29.83 0.0
10 14:25 S 3 10.00 Partly Cloudy SCT080 78.8 51.8 39% 79 29.84 0.0
10 14:05 Calm 10.00 Partly Cloudy SCT070 78.8 51.8 39% 79 29.84 0.0
10 13:45 SW 3 10.00 Partly Cloudy SCT070 77 51.8 42% 78 29.84 0.0
10 13:25 Calm 10.00 Mostly Cloudy SCT060 BKN070 BKN090 78.8 53.6 42% 79 29.85 0.0
10 13:05 Calm 10.00 Mostly Cloudy BKN060 BKN070 77 51.8 42% 78 29.86 0.0
10 12:45 Calm 10.00 Partly Cloudy SCT070 SCT085 78.8 53.6 42% 79 29.86 0.0
10 12:25 SW 3 10.00 Partly Cloudy SCT070 77 51.8 42% 78 29.87 0.0
10 12:05 W 5 10.00 Fair CLR 77 53.6 44% 78 29.87 0.0
10 11:45 Calm 10.00 Fair CLR 75.2 51.8 44% 78 29.88 0.0
10 11:25 NW 3 10.00 Fair CLR 73.4 55.4 53% 29.89 0.0
10 11:05 Calm 10.00 Fair CLR 73.4 55.4 53% 29.89 0.0
10 10:45 Calm 10.00 Fair CLR 73.4 53.6 50% 29.89 0.0
10 10:25 NW 3 10.00 Fair CLR 73.4 55.4 53% 29.89 0.0
10 10:05 N 3 10.00 Fair CLR 71.6 55.4 57% 29.89 0.0
10 09:45 Calm 10.00 Fair CLR 71.6 59 65% 29.89 0.0
10 09:25 Calm 10.00 Fair CLR 69.8 57.2 64% 29.9 0.0
10 09:05 Calm 10.00 Fair CLR 69.8 57.2 64% 29.89 0.0
10 08:45 N 3 10.00 Fair CLR 68 57.2 69% 29.89 0.0
10 08:25 Calm 10.00 Fair CLR 66.2 59 78% 29.89 0.0
10 08:05 Calm 10.00 Fair CLR 62.6 59 88% 29.88 0.0
10 07:45 Calm 10.00 Thunderstorm in Vicinity CLR 60.8 60.8 100% 29.87 0.0
10 07:25 Calm 10.00 Fair CLR 60.8 60.8 100% 29.86 0.0
10 07:05 N 3 10.00 Fair CLR 62.6 55.4 77% 29.86 0.0
10 06:45 N 5 10.00 Fair CLR 60.8 59 94% 29.85 0.0
10 06:25 N 3 10.00 Partly Cloudy SCT090 60.8 60.8 100% 29.86 0.0
10 06:05 Calm 10.00 Mostly Cloudy BKN080 62.6 60.8 94% 29.85 0.0
10 05:45 Calm 10.00 Overcast OVC080 62.6 62.6 100% 29.85 0.0
10 05:25 Calm 10.00 Overcast BKN075 OVC090 62.6 59 88% 29.85 0.0
10 05:05 N 3 10.00 Overcast SCT075 OVC090 62.6 60.8 94% 29.83 0.0
10 04:45 Calm 10.00 Mostly Cloudy SCT075 BKN090 62.6 60.8 94% 29.83 0.0
10 04:25 N 3 10.00 Partly Cloudy SCT085 64.4 59 83% 29.83 0.0
10 04:05 Calm 10.00 Partly Cloudy SCT085 64.4 59 83% 29.84 0.0
10 03:40 Calm 10.00 Fair CLR 64.4 60.8 88% 29.84 0.0
10 03:25 Calm 10.00 Partly Cloudy SCT110 64.4 62.6 94% 29.84 0.0
10 03:05 Calm 10.00 Mostly Cloudy BKN110 64.4 62.6 94% 29.84 0.0
10 02:45 NW 3 10.00 Overcast SCT085 OVC110 64.4 60.8 88% 29.84 0.0
10 02:25 N 5 10.00 Overcast SCT075 BKN085 OVC110 66.2 62.6 88% 29.85 0.0
10 02:05 N 6 10.00 Overcast SCT065 OVC075 66.2 64.4 94% 29.85 0.0
10 01:45 Calm 10.00 Overcast OVC075 66.2 66.2 100% 29.86 0.0
10 01:25 Calm 10.00 Overcast OVC065 66.2 66.2 100% 29.86 0.0
10 01:05 Calm 10.00 Overcast OVC075 68 68 100% 29.87 0.0
10 00:45 N 3 10.00 Overcast OVC075 68 68 100% 29.86 0.0
10 00:25 NW 3 10.00 Overcast SCT001 BKN075 OVC100 68 68 100% 29.86 0.0
10 00:05 Calm 5.00 Fog/Mist BKN001 BKN065 68 68 100% 29.86 0.0
Date Time (edt) Wind (mph) Vis. (mi.) Weather Sky Cond. Air Dwpt Max. Min. Relative Humidity Wind Chill (°F) Heat Index (°F) altimeter (in) sea level (mb) 1 hr 3 hr 6 hr
6 hour
Temperature (ºF) Pressure Precipitation (in)